Starlink 30282

operational
NORAD ID: 57883 Int'l Des: 2023-144 Owner: SPXS Country: US Constellation: starlink
LEOCIRCULAR

Über Starlink 30282

Beschreibung wird geladen...

Live-Position

3D-Globus wird geladen...

Nächste Überflüge

Höhenverlauf

Altitude vs Time

uPlot chart will show altitude changes over time

Zweizeiliger Elementsatz

1 57883U 23144V 25305.92024365 .00004341 00000-0 33631-3 0 9992
2 57883 43.0042 261.4964 0001413 277.2263 82.8419 15.02530465118391
Epoch: 1. Nov. 2025 • Age: 55 hours

Aktueller Status

Höhe 559.6 km
Geschwindigkeit 7.59 km/s
Subsatellitenpunkt 24.20°N, 77.75°W
Startdatum 16. Sept. 2023
Alter 2.1 years
Typ internet

Technische Details

Klassifizierung Payload
Masse 730.00 kg
Trockenmasse 700.00 kg
Gesamtmasse 730.00 kg
Länge 0.30 m
Durchmesser 4.10 m
Spannweite 29.00 m
Form Box + pan
Hersteller SPXS
Bus-Typ Starlink V2M
Phasenstatus In Orbit
Besitzer/Staat SPXS/US

Große Konstellationen

Loading constellations...